Torna al catalogo

STARLINK-36436

AttivoComunicazioniVLEO
NORAD 67626·PAYLOAD·🇺🇸 United States

Lanciato Jan 30, 2026 da Cape Canaveral Space Force Station

Loading…

Prossimi Passaggi (prossime 24 ore)

TLE

AggiornatoSource: CelesTrak SupGP

Epoca: Sep 14, 2026, 21:14 UTC

1 67626C 26020K   26257.88520833 -.00045063  00000+0 -16324-2 0  2570
2 67626  43.0025 151.0640 0001282 269.6831   9.1006 15.27597117    10

Traccia STARLINK-36436 in tempo reale con AllMySat

Download on the App Store